Tracking 29528 objects as of 12-Sep-2024
HD Live streaming from Space Station
objects crossing your sky now

USA 330

Track USA 330 now!
10-day predictions


NORAD ID: 52891
Int'l Code: 2022-064D
Perigee: 529.6 km
Apogee: 536.3 km
Inclination: 53.0 °
Period: 95.1 minutes
Semi major axis: 6903 km
RCS: Unknown
Launch date: June 19, 2022
Source: United States (US)
Launch site: AIR FORCE EASTERN TEST RANGE (AFETR)
Your satellite tracking list
Your tracking list is empty




NASA's NSSDC Master Catalog

Two Line Element Set (TLE):
1 52891U 22064D   24247.84279923 0.00001000  00000-0  55224-4 0    08
2 52891  53.0024 162.4152 0004829 209.0468 150.9531 15.13412164    06
Source of the keplerian elements: McCants